Location: Leimbach
(47.5611°N, 9.1881°E)
Time: 01:38:49
(UTC+00:00)

STARLINK-1309 - Pass Details

Date: 07 June 2020
Orbit: 548 x 551 km, 53.0° (Epoch: 12 July)

Event Time Altitude Azimuth Distance (km) Brightness Sun altitude
Exits shadow 00:23:59 23° 254° (WSW) 1,179 5.0 -18.3°
Maximum altitude 00:26:26 72° 336° (NNW) 580 3.8 -18.2°
Drops below altitude 10° 00:30:35 10° 61° (ENE) 1,825 6.9 -18.0°
Enters shadow 01:30:52 -63° 256° (WSW) 11,943 10.3 -13.9°
